[[{"header":{"parameterUnit":"m.s-1","parameterCategory":1,"la1":30.2991,"la2":30.254,"lo1":-89.0895,"lo2":-89.0444,"dy":0.0017,"dx":0.0017,"nx":28,"ny":28,"refTime":"2025-11-25T03:00:00:Z","depth":0,"parameterNumber":2,"parameterNumberName":"U-component_of_WINDS"},"data":[0,0,0,0,0,0,0,0,0,0,0,0,0,0,0,0,0,0,0,0,0,0,0,0,0,0,0,0,0,0,0,0,0,0,0,0,0,0,0,0,0,0,0,0,0,0,0,0,0,0,0,0,0,0,0,0,0,0,0.9228,0.9228,0,0.9242,0.9242,0.9242,0.9255,0.9256,0.9256,0.9256,0.9268,0.9268,0.9268,0,0,0,0,0,0,0,0,0,0,0,0,0,0.9213,0.9213,0.9228,0.9228,0.9229,0.9242,0.9242,0.9242,0.9255,0.9256,0.9256,0.9256,0.9268,0.9268,0.9268,0,0,0,0,0,0,0,0,0,0,0,0,0,0.9223,0.9214,0.9228,0.9237,0.9238,0.9242,0.9242,0.9242,0.9255,0.9256,0.9256,0.9256,0.9268,0.9268,0.9268,0.9265,0,0,0.9269,0.9269,0,0,0,0,0,0,0,0,0.9222,0.9223,0.9235,0.9236,0.9237,0.9247,0.9241,0.925,0.9255,0.9249,0.9256,0.9256,0.9261,0.9262,0.9264,0.9265,0.9266,0.9269,0.9269,0.9269,0.927,0,0,0,0,0,0,0,0.9221,0.9223,0.9234,0.9236,0.9237,0.924,0.9241,0.9243,0.9253,0.9249,0.925,0.9252,0.9261,0.9263,0.9264,0.9266,0.9269,0.9269,0.927,0.927,0.9266,0.9266,0,0,0,0,0,0,0.922,0.9222,0.9233,0.9234,0.923,0.924,0.9242,0.9244,0.9253,0.9255,0.9252,0.9252,0.9263,0.9264,0.9264,0.9261,0.9269,0.927,0.927,0.9267,0.9266,0.9266,0,0,0,0,0,0,0.9219,0.922,0.9233,0.9228,0.923,0.924,0.9242,0.9244,0.9246,0.9255,0.9257,0.9252,0.9263,0.9264,0.9265,0.9262,0.927,0.927,0.9267,0.9267,0.9266,0.9254,0,0,0,0,0,0,0.9219,0.922,0.9219,0.9228,0.923,0.9233,0.9242,0.9244,0.9246,0.9248,0.9255,0.9257,0.9263,0.9265,0.9265,0.9262,0.927,0.9267,0.9267,0.9266,0.9255,0.9253,0.9252,0,0,0,0,0,0.9218,0.9214,0.9219,0.922,0.9229,0.9233,0.9234,0.9242,0.9246,0.9245,0.9251,0.9257,0.9262,0.9264,0.9265,0.9262,0.9267,0.9267,0.9266,0.9255,0.9254,0.9252,0,0,0,0,0,0,0.9203,0.9215,0.922,0.922,0.9225,0.9235,0.9233,0.9239,0.9243,0.9244,0.9253,0.9255,0.9255,0.9259,0.9261,0.926,0.9266,0.9265,0.9257,0.9256,0.9254,0.9253,0.927,0,0,0,0,0,0.92,0.9202,0.9213,0.9211,0.9214,0.9223,0.9225,0.9231,0.9237,0.9239,0.9245,0.925,0.9253,0.9255,0.9258,0.9256,0.9258,0.9255,0.9253,0.9252,0.9251,0.9252,0.925,0.9264,0.9264,0.9264,0,0,0.9192,0.92,0.92,0.9208,0.9213,0.9215,0.9225,0.9226,0.9228,0.9239,0.924,0.9245,0.9251,0.9251,0.9251,0.9254,0.9248,0.9251,0.925,0.925,0.9251,0.925,0.9248,0.9264,0.9264,0.9264,0,0,0.9181,0.9186,0.9186,0.9191,0.9199,0.9206,0.9206,0.9215,0.9219,0.9221,0.9229,0.9231,0.9236,0.9241,0.9244,0.9236,0.9241,0.9237,0.9229,0.9229,0.9228,0.9227,0.9225,0.9224,0.9236,0.9236,0.9236,0,0.917,0.9174,0.9184,0.9186,0.9189,0.9201,0.92,0.9205,0.9213,0.9215,0.9219,0.9226,0.9231,0.9233,0.9231,0.9233,0.9233,0.9235,0.9228,0.9227,0.9226,0.9224,0.9223,0.9235,0.9235,0.9235,0.9236,0,0.9162,0.9164,0.9163,0.9172,0.9175,0.9176,0.9186,0.9188,0.9195,0.9201,0.9203,0.921,0.9216,0.9217,0.9222,0.9219,0.9221,0.9226,0.9232,0.9224,0.9222,0.9221,0.9234,0.9235,0.9235,0.9235,0,0,0.9138,0.9155,0.9154,0.9159,0.9169,0.9171,0.9173,0.9179,0.9181,0.9187,0.9189,0.9194,0.9199,0.9202,0.9209,0.9209,0.9203,0.9214,0.9215,0.9212,0.9201,0.9197,0.9195,0.9208,0.9207,0.9207,0.92,0,0.9128,0.9132,0.9142,0.9143,0.9146,0.9158,0.9159,0.9166,0.9172,0.9176,0.9183,0.9187,0.9193,0.9196,0.9197,0.9204,0.9201,0.9204,0.9209,0.9209,0.9206,0.9194,0.9189,0.9182,0.92,0.9199,0.9199,0,0.9116,0.9122,0.9123,0.9135,0.9137,0.9138,0.9145,0.9149,0.9157,0.9162,0.9167,0.9175,0.9177,0.9184,0.9188,0.919,0.9193,0.9197,0.9197,0.9197,0.9203,0.9194,0.918,0.9179,0.9198,0.9198,0.9198,0,0.9099,0.9108,0.911,0.9114,0.9127,0.9128,0.9134,0.9143,0.9146,0.9153,0.9155,0.9162,0.9165,0.917,0.9179,0.9183,0.9182,0.9189,0.9186,0.9186,0.9185,0.9185,0.9171,0.9187,0.9187,0.9187,0.9187,0,0.9086,0.9086,0.9103,0.9104,0.9105,0.9117,0.9118,0.9125,0.9133,0.9136,0.9147,0.9149,0.9162,0.9166,0.9173,0.9176,0.9177,0.9181,0.9183,0.918,0.9179,0.9181,0.9182,0.9187,0.9187,0.9187,0.9187,0,0.9066,0.9077,0.9081,0.9094,0.9098,0.9098,0.911,0.9112,0.912,0.9123,0.9125,0.9137,0.9143,0.9154,0.9162,0.9167,0.9168,0.9171,0.9165,0.9166,0.9162,0.9163,0.9149,0.9148,0.9165,0.9165,0.9165,0,0.9056,0.9057,0.9071,0.9075,0.908,0.9085,0.9089,0.9102,0.9106,0.9117,0.9117,0.9124,0.913,0.9139,0.9148,0.9155,0.9158,0.9153,0.9159,0.9157,0.9158,0.9158,0.9158,0.9152,0.9151,0.9151,0.9151,0,0.9038,0.9044,0.905,0.9058,0.9064,0.907,0.9078,0.908,0.9094,0.9098,0.9105,0.911,0.9119,0.9126,0.9134,0.914,0.9148,0.9149,0.9149,0.9145,0.9142,0.9144,0.9161,0.9149,0.9149,0.915,0.915,0.915,0.9023,0.9024,0.9035,0.9042,0.905,0.9057,0.906,0.9069,0.9075,0.9084,0.9091,0.9097,0.9107,0.912,0.9125,0.913,0.9134,0.9133,0.9133,0.9133,0.9132,0.9142,0.9132,0.9132,0.9132,0.9132,0.9132,0,0.9005,0.9013,0.9019,0.903,0.9036,0.9044,0.9054,0.9057,0.9063,0.9072,0.9078,0.9086,0.9093,0.9105,0.9113,0.9115,0.9118,0.9116,0.9116,0.9117,0.9128,0.9127,0.9113,0.9113,0.9113,0.9113,0.9113,0.9113,0.8996,0.9,0.9007,0.9015,0.9024,0.903,0.9035,0.9042,0.9049,0.9058,0.9065,0.9072,0.9082,0.9092,0.9099,0.9102,0.9104,0.9101,0.9105,0.9115,0.9116,0.9118,0.9117,0.9101,0.9101,0.9094,0.9094,0.9094]},{"header":{"parameterUnit":"m.s-1","parameterCategory":1,"la1":30.2991,"la2":30.254,"lo1":-89.0895,"lo2":-89.0444,"dy":0.0017,"dx":0.0017,"nx":28,"ny":28,"refTime":"2025-11-25T03:00:00:Z","depth":0,"parameterNumber":3,"parameterNumberName":"V-component_of_WINDS"},"data":[0,0,0,0,0,0,0,0,0,0,0,0,0,0,0,0,0,0,0,0,0,0,0,0,0,0,0,0,0,0,0,0,0,0,0,0,0,0,0,0,0,0,0,0,0,0,0,0,0,0,0,0,0,0,0,0,0,0,-7.6604,-7.6605,0,-7.6752,-7.6754,-7.6756,-7.6656,-7.6651,-7.6647,-7.6643,-7.6787,-7.6795,-7.6803,0,0,0,0,0,0,0,0,0,0,0,0,0,-7.6227,-7.6234,-7.6603,-7.6605,-7.6607,-7.6752,-7.6754,-7.6756,-7.6657,-7.6651,-7.6646,-7.6641,-7.6785,-7.6794,-7.6804,0,0,0,0,0,0,0,0,0,0,0,0,0,-7.6384,-7.6237,-7.6603,-7.6575,-7.6574,-7.6752,-7.6754,-7.6756,-7.6658,-7.6651,-7.6644,-7.6638,-7.6782,-7.6793,-7.6805,-7.7016,0,0,-7.6842,-7.6847,0,0,0,0,0,0,0,0,-7.6375,-7.6398,-7.6577,-7.6578,-7.6577,-7.6679,-7.6674,-7.6843,-7.666,-7.6626,-7.6642,-7.6635,-7.6756,-7.677,-7.6812,-7.7022,-7.7029,-7.6843,-7.6851,-7.6856,-7.6859,0,0,0,0,0,0,0,-7.6365,-7.6391,-7.6662,-7.658,-7.658,-7.6553,-7.6568,-7.6706,-7.6727,-7.6628,-7.6622,-7.6641,-7.6755,-7.6801,-7.6815,-7.7031,-7.6843,-7.6854,-7.6861,-7.6866,-7.7421,-7.7428,0,0,0,0,0,0,-7.6357,-7.6383,-7.6657,-7.6666,-7.6458,-7.6565,-7.6582,-7.6653,-7.6725,-7.673,-7.6647,-7.6636,-7.6784,-7.6801,-7.682,-7.7072,-7.6856,-7.6867,-7.6874,-7.7414,-7.7423,-7.7431,0,0,0,0,0,0,-7.6349,-7.6382,-7.6651,-7.6523,-7.6555,-7.6579,-7.6659,-7.6659,-7.6706,-7.6739,-7.6742,-7.6691,-7.6779,-7.6803,-7.6968,-7.7075,-7.6872,-7.6883,-7.7405,-7.7416,-7.7427,-7.7577,0,0,0,0,0,0,-7.6339,-7.638,-7.6462,-7.6526,-7.6562,-7.68,-7.6666,-7.6667,-7.6728,-7.6715,-7.6781,-7.6786,-7.6776,-7.6951,-7.698,-7.7088,-7.6893,-7.7395,-7.741,-7.7423,-7.7562,-7.7592,-7.7617,0,0,0,0,0,-7.6326,-7.6497,-7.6467,-7.6501,-7.6666,-7.6806,-7.6827,-7.6814,-7.6737,-7.6818,-7.684,-7.6783,-7.7059,-7.6969,-7.7001,-7.7114,-7.7388,-7.7406,-7.7422,-7.755,-7.7586,-7.7616,0,0,0,0,0,0,-7.6442,-7.6504,-7.6472,-7.6669,-7.6734,-7.6789,-7.6892,-7.6853,-7.6938,-7.6922,-7.69,-7.6916,-7.709,-7.7118,-7.7017,-7.7322,-7.7211,-7.7235,-7.7297,-7.7332,-7.7358,-7.7348,-7.6903,0,0,0,0,0,-7.6491,-7.6603,-7.665,-7.6819,-7.6854,-7.6868,-7.6928,-7.6913,-7.6978,-7.7004,-7.7037,-7.71,-7.7201,-7.7267,-7.7362,-7.7566,-7.7578,-7.7659,-7.7687,-7.7709,-7.773,-7.784,-7.7877,-7.7486,-7.7486,-7.7486,0,0,-7.6593,-7.6641,-7.6712,-7.6844,-7.6892,-7.7006,-7.6891,-7.7016,-7.71,-7.7022,-7.7181,-7.7208,-7.7277,-7.7463,-7.7546,-7.7492,-7.7841,-7.773,-7.7748,-7.7757,-7.7861,-7.7898,-7.7931,-7.7497,-7.7495,-7.7494,0,0,-7.6837,-7.6884,-7.7031,-7.7083,-7.7158,-7.7166,-7.7202,-7.7264,-7.728,-7.744,-7.7385,-7.7482,-7.7656,-7.7708,-7.7757,-7.8022,-7.7973,-7.8052,-7.8195,-7.8303,-7.8333,-7.836,-7.8455,-7.8489,-7.8073,-7.8074,-7.8074,0,-7.6953,-7.7125,-7.711,-7.7241,-7.7301,-7.7238,-7.7386,-7.7435,-7.7537,-7.7578,-7.7516,-7.7734,-7.7775,-7.7973,-7.8038,-7.808,-7.8118,-7.8045,-7.833,-7.8358,-7.8383,-7.8473,-7.8508,-7.8083,-7.8082,-7.8081,-7.808,0,-7.7264,-7.7384,-7.7493,-7.7597,-7.7668,-7.7806,-7.7811,-7.7884,-7.7863,-7.7878,-7.8041,-7.8089,-7.8193,-7.8238,-7.8217,-7.8433,-7.8397,-7.8334,-7.8222,-7.843,-7.8514,-7.8548,-7.8096,-7.8093,-7.809,-7.8088,0,0,-7.7585,-7.768,-7.772,-7.7767,-7.7846,-7.7937,-7.8072,-7.8176,-7.824,-7.8311,-7.8423,-7.8573,-7.8515,-7.857,-7.8555,-7.8649,-7.8857,-7.8574,-7.8575,-7.8625,-7.9097,-7.9145,-7.9186,-7.8825,-7.8831,-7.8836,-7.9092,0,-7.7833,-7.8072,-7.8064,-7.8285,-7.8396,-7.8338,-7.8455,-7.8516,-7.8533,-7.8627,-7.8644,-7.8751,-7.8666,-7.87,-7.8791,-7.8812,-7.8951,-7.8793,-7.8927,-7.8932,-7.8913,-7.9229,-7.928,-7.9519,-7.9124,-7.913,-7.9134,0,-7.8155,-7.8242,-7.8476,-7.854,-7.8586,-7.8692,-7.8787,-7.8879,-7.8945,-7.895,-7.9014,-7.8984,-7.9118,-7.9003,-7.9188,-7.9081,-7.9135,-7.9153,-7.9162,-7.9174,-7.9046,-7.925,-7.9595,-7.9631,-7.9185,-7.9181,-7.9178,0,-7.8367,-7.8541,-7.8704,-7.8745,-7.8824,-7.89,-7.8936,-7.8996,-7.9059,-7.9141,-7.9182,-7.9277,-7.933,-7.9404,-7.9399,-7.9316,-7.9586,-7.9471,-7.9594,-7.9594,-7.9653,-7.965,-8.0012,-7.9688,-7.9687,-7.9686,-7.9686,0,-7.8646,-7.8791,-7.88,-7.8901,-7.9061,-7.9049,-7.9208,-7.9235,-7.9289,-7.9392,-7.9347,-7.9444,-7.9432,-7.9529,-7.9525,-7.9679,-7.9702,-7.9709,-7.9707,-7.9714,-7.9714,-7.9749,-7.9733,-7.9696,-7.9694,-7.9692,-7.969,0,-7.8909,-7.8921,-7.9095,-7.9156,-7.9175,-7.9291,-7.9342,-7.9436,-7.9449,-7.958,-7.961,-7.963,-7.9742,-7.9745,-7.9872,-7.987,-8.0058,-8.0036,-8.0037,-8.0033,-8.0156,-8.0144,-8.0554,-8.0607,-8.0248,-8.0251,-8.0254,0,-7.9086,-7.9197,-7.9272,-7.9339,-7.938,-7.9489,-7.9554,-7.9546,-7.9615,-7.97,-7.9784,-7.9892,-7.9978,-8.0159,-8.0184,-8.0281,-8.0262,-8.0399,-8.0276,-8.028,-8.0264,-8.0258,-8.0269,-8.0423,-8.0427,-8.043,-8.0432,0,-7.94,-7.9401,-7.9499,-7.96,-7.968,-7.9758,-7.9829,-7.9886,-7.9886,-7.9966,-8.0082,-8.0149,-8.0281,-8.0389,-8.0483,-8.0516,-8.0475,-8.0471,-8.0505,-8.0513,-8.0509,-8.0514,-8.0103,-8.0462,-8.0459,-8.0457,-8.0455,-8.0454,-7.9626,-7.9723,-7.9791,-7.9901,-7.9955,-8.0024,-8.0116,-8.0142,-8.0239,-8.0348,-8.0336,-8.0465,-8.0528,-8.0651,-8.0693,-8.0792,-8.0744,-8.0793,-8.0805,-8.0818,-8.0832,-8.0494,-8.0809,-8.0808,-8.0807,-8.0807,-8.0806,0,-7.9938,-7.998,-8.0082,-8.0186,-8.0272,-8.0228,-8.0306,-8.038,-8.0495,-8.0559,-8.0646,-8.0779,-8.0883,-8.0917,-8.1018,-8.109,-8.1074,-8.1117,-8.1112,-8.112,-8.0868,-8.0829,-8.1129,-8.1129,-8.1129,-8.1129,-8.1129,-8.1129,-8.0111,-8.0272,-8.0282,-8.0469,-8.0508,-8.0636,-8.0684,-8.0747,-8.0798,-8.095,-8.1038,-8.106,-8.1112,-8.1216,-8.1309,-8.1316,-8.1355,-8.1407,-8.1406,-8.117,-8.1138,-8.1107,-8.107,-8.1416,-8.1416,-8.165,-8.1653,-8.1654]}]]